Change the Weather History Date:

Sunday, October 27, 2013

  Actual Average Record
Temperature  
Mean Temperature 37 °F 40 °F  
Max Temperature 48 °F 53 °F 79 °F (1891)
Min Temperature 26 °F 26 °F -3 °F (1925)
Degree Days  
Heating Degree Days 28 26  
Month to date heating degree days 527 536  
Since 1 July heating degree days 695 893  
Cooling Degree Days 0 0  
Month to date cooling degree days 0 0  
Year to date cooling degree days 445 386  
Moisture  
Dew Point 25 °F    
Average Humidity 69    
Maximum Humidity 85    
Minimum Humidity 53    
Precipitation  
Precipitation 0.06 in 0.01 in 1.34 in (1940)
Month to date precipitation 0.22 0.52  
Year to date precipitation 17.37 10.31  
Snow  
Snow 0.00 in 0.10 in 2.60 in (1984)
Month to date snowfall 0.0 1.6  
Since 1 July snowfall 0.0 1.9  
Since 1 September snowfall 0.0 1.9  
Snow Depth 0.00 in    
Sea Level Pressure  
Sea Level Pressure 30.16 in    
Wind  
Wind Speed 17 mph (ENE)    
Max Wind Speed 30 mph    
Max Gust Speed 36 mph    
Visibility 7 miles    
Events Snow    
T = Trace of Precipitation, MM = Missing Value Source: NWS Daily Summary

Daily Weather History Graph

Daily Weather History Graph

Search for Another Location

Airport or City:

Trip Planner

Search our weather history database for the weather conditions in past years. The results will help you decide how hot, cold, wet, or windy it might be!

Date:

Astronomy

Oct. 27, 2013 Rise Set
Actual Time 7:57 AM MDT 6:07 PM MDT
Civil Twilight 7:25 AM MDT 6:39 PM MDT
Nautical Twilight 6:48 AM MDT 7:16 PM MDT
Astronomical Twilight 6:12 AM MDT 7:52 PM MDT
Moon 12:26 AM MDT (10/27) 2:47 PM MDT (10/27)
Length of Visible Light 11h 14m
Length of Day
10h 09m
Last Quarter, 43% of the Moon is Illuminated
Oct 27
Last Quarter
Nov 3
New
Nov 9
First Quarter
Nov 17
Full
Nov 25
Last Quarter

Hourly Weather History & Observations

Time (MDT) Temp. Windchill Dew Point Humidity Pressure Visibility Wind Dir Wind Speed Gust Speed Precip Events Conditions
12:53 AM 39.9 °F 34.5 °F 25.0 °F 55% 29.91 in 10.0 mi SW 8.1 mph - N/A   Clear
1:53 AM 37.0 °F 31.0 °F 25.0 °F 62% 29.90 in 10.0 mi SW 8.1 mph - N/A   Clear
2:53 AM 36.0 °F 29.6 °F 23.0 °F 59% 29.88 in 10.0 mi WSW 8.1 mph - N/A   Clear
3:53 AM 34.0 °F 28.0 °F 21.9 °F 61% 29.86 in 10.0 mi SW 6.9 mph - N/A   Clear
4:53 AM 32.0 °F 27.5 °F 21.0 °F 64% 29.86 in 10.0 mi West 4.6 mph - N/A   Clear
5:53 AM 30.0 °F 25.2 °F 21.0 °F 69% 29.89 in 10.0 mi West 4.6 mph - N/A   Clear
6:53 AM 30.0 °F 23.2 °F 21.9 °F 72% 29.91 in 10.0 mi ESE 6.9 mph - N/A   Clear
7:53 AM 35.1 °F 28.6 °F 24.1 °F 64% 29.91 in 10.0 mi ESE 8.1 mph - N/A   Clear
8:53 AM 34.0 °F 26.0 °F 24.1 °F 67% 29.93 in 10.0 mi East 10.4 mph - N/A   Clear
9:53 AM 39.0 °F 29.3 °F 28.0 °F 65% 29.94 in 10.0 mi ENE 19.6 mph - N/A   Clear
10:53 AM 42.1 °F 31.7 °F 30.0 °F 62% 29.99 in 10.0 mi ENE 27.6 mph 35.7 mph N/A   Clear
11:53 AM 43.0 °F 32.9 °F 30.0 °F 60% 30.01 in 10.0 mi East 27.6 mph 32.2 mph N/A   Clear
12:53 PM 46.0 °F 37.8 °F 30.0 °F 54% 30.03 in 10.0 mi ENE 23.0 mph 31.1 mph N/A   Clear
1:53 PM 45.0 °F 36.0 °F 30.0 °F 56% 30.05 in 10.0 mi ENE 25.3 mph 33.4 mph N/A   Mostly Cloudy
2:53 PM 42.1 °F 32.8 °F 30.0 °F 62% 30.09 in 10.0 mi East 21.9 mph 32.2 mph N/A   Mostly Cloudy
3:33 PM 39.2 °F 27.6 °F 28.4 °F 65% 30.07 in 10.0 mi ENE 28.8 mph 35.7 mph N/A   Overcast
3:53 PM 39.9 °F 29.5 °F 28.0 °F 63% 30.15 in 10.0 mi ENE 24.2 mph 31.1 mph N/A   Overcast
4:53 PM 37.0 °F 25.6 °F 27.0 °F 67% 30.21 in 10.0 mi ENE 24.2 mph 33.4 mph 0.00 in   Overcast
5:53 PM 35.1 °F 23.5 °F 27.0 °F 72% 30.26 in 9.0 mi NE 21.9 mph 32.2 mph 0.00 in Snow Light Snow
6:53 PM 32.0 °F 20.5 °F 28.0 °F 85% 30.32 in 8.0 mi NE 18.4 mph - 0.00 in Snow Light Snow
7:19 PM 30.2 °F 18.1 °F 28.4 °F 93% 30.25 in 7.0 mi NE 18.4 mph 25.3 mph 0.00 in Snow Light Snow
7:36 PM 30.2 °F 18.1 °F 26.6 °F 86% 30.27 in 8.0 mi NE 18.4 mph 31.1 mph 0.00 in Snow Light Snow
7:45 PM 30.2 °F 16.2 °F 24.8 °F 80% 30.28 in 9.0 mi NE 25.3 mph 33.4 mph 0.00 in Snow Light Snow
7:53 PM 30.0 °F 17.9 °F 25.0 °F 82% 30.36 in 9.0 mi NE 18.4 mph 31.1 mph 0.00 in   Overcast
8:53 PM 28.0 °F 14.6 °F 24.1 °F 85% 30.40 in 2.5 mi NE 20.7 mph 29.9 mph 0.01 in Snow Light Snow
9:30 PM 26.6 °F 13.1 °F 24.8 °F 93% 30.33 in 1.8 mi NE 19.6 mph 25.3 mph 0.01 in Snow Light Snow
9:50 PM 26.6 °F 13.4 °F 23.0 °F 86% 30.34 in 2.0 mi NE 18.4 mph - 0.02 in Snow Light Snow
9:53 PM 26.1 °F 12.3 °F 23.0 °F 88% 30.43 in 2.0 mi NE 19.6 mph - 0.02 in Snow Light Snow
10:13 PM 26.6 °F 13.8 °F 23.0 °F 86% 30.35 in 2.0 mi NE 17.3 mph - 0.01 in Snow Light Snow
10:23 PM 26.6 °F 14.3 °F 23.0 °F 86% 30.36 in 1.8 mi NE 16.1 mph - 0.01 in Snow Light Snow
10:35 PM 26.6 °F 13.4 °F 23.0 °F 86% 30.36 in 2.5 mi ENE 18.4 mph 25.3 mph 0.01 in Snow Light Snow
10:53 PM 26.1 °F 13.1 °F 21.9 °F 84% 30.45 in 2.0 mi ENE 17.3 mph - 0.02 in Snow Light Snow
11:04 PM 26.6 °F 13.4 °F 21.2 °F 80% 30.37 in 1.8 mi NE 18.4 mph - 0.00 in Snow Light Snow
11:12 PM 26.6 °F 13.4 °F 21.2 °F 80% 30.37 in 2.5 mi NE 18.4 mph - 0.00 in Snow Light Snow
11:21 PM 26.6 °F 13.8 °F 21.2 °F 80% 30.37 in 4.0 mi NE 17.3 mph 24.2 mph 0.01 in Snow Light Snow
11:53 PM 26.1 °F 14.0 °F 21.9 °F 84% 30.46 in 6.0 mi NE 15.0 mph 21.9 mph 0.01 in Snow Light Snow